Aurora, OR

10:45 PM PST on February 17, 2018 (GMT -0800)
Aurora State

Weather History for KUAO - October, 2012

Change the Weather History Date:

Saturday, October 13, 2012

  Actual Average Record
Temperature  
Mean Temperature 58 °F -  
Max Temperature 64 °F - 79 °F (2004)
Min Temperature 54 °F - 36 °F (2002)
Degree Days  
Heating Degree Days 6    
Month to date heating degree days 98  
Since 1 July heating degree days 215  
Cooling Degree Days 0    
Month to date cooling degree days 1  
Year to date cooling degree days 295  
Growing Degree Days 8 (Base 50)    
Moisture  
Dew Point 56 °F    
Average Humidity 87    
Maximum Humidity 100    
Minimum Humidity 73    
Precipitation  
Precipitation T in - 1.67 in (2016)
Month to date precipitation 0.85  
Year to date precipitation 30.82  
Sea Level Pressure  
Sea Level Pressure 30.19 in    
Wind  
Wind Speed 7 mph (SSW)    
Max Wind Speed 17 mph    
Max Gust Speed 22 mph    
Visibility 10 miles    
Events Rain    
T = Trace of Precipitation, MM = Missing Value Source: NWS Daily Summary

Daily Weather History Graph

Daily Weather History Graph

Search for Another Location

Airport or City:

Trip Planner

Search our weather history database for the weather conditions in past years. The results will help you decide how hot, cold, wet, or windy it might be!

Date:

Astronomy

Oct. 13, 2012 Rise Set
Actual Time 7:25 AM PDT 6:28 PM PDT
Civil Twilight 6:55 AM PDT 6:57 PM PDT
Nautical Twilight 6:21 AM PDT 7:32 PM PDT
Astronomical Twilight 5:47 AM PDT 8:06 PM PDT
Moon 5:17 AM PDT (10/13) 5:17 PM PDT (10/13)
Length of Visible Light 12h 02m
Length of Day
11h 03m
Waning Crescent, 4% of the Moon is Illuminated
Oct 13
Waning Crescent
Oct 15
New
Oct 21
First Quarter
Oct 29
Full
Nov 6
Last Quarter

Hourly Weather History & Observations

Time (PDT) Temp. Dew Point Humidity Pressure Visibility Wind Dir Wind Speed Gust Speed Precip Events Conditions
12:53 AM 54.0 °F 53.1 °F 97% 30.12 in 10.0 mi SSW 5.8 mph - N/A   Overcast
1:04 AM 53.6 °F 53.6 °F 100% 30.12 in 10.0 mi South 5.8 mph - N/A   Overcast
1:37 AM 55.4 °F 53.6 °F 94% 30.13 in 10.0 mi South 10.4 mph - N/A   Overcast
1:53 AM 55.0 °F 53.1 °F 93% 30.14 in 10.0 mi SSW 6.9 mph - N/A   Overcast
2:13 AM 55.4 °F 53.6 °F 94% 30.14 in 10.0 mi SSW 5.8 mph - N/A   Overcast
2:50 AM 55.4 °F 53.6 °F 94% 30.14 in 10.0 mi South 10.4 mph - N/A   Overcast
2:53 AM 55.0 °F 54.0 °F 96% 30.14 in 10.0 mi South 8.1 mph - N/A   Overcast
3:53 AM 55.9 °F 54.0 °F 93% 30.16 in 10.0 mi SSW 8.1 mph - N/A   Overcast
4:53 AM 55.9 °F 54.0 °F 93% 30.17 in 10.0 mi South 6.9 mph - N/A   Overcast
5:53 AM 55.9 °F 54.0 °F 93% 30.17 in 10.0 mi South 9.2 mph - N/A   Overcast
6:53 AM 57.0 °F 54.0 °F 89% 30.18 in 10.0 mi SSW 5.8 mph - N/A   Overcast
7:53 AM 57.0 °F 55.0 °F 93% 30.20 in 10.0 mi South 4.6 mph - N/A   Overcast
8:53 AM 57.9 °F 55.9 °F 93% 30.22 in 10.0 mi South 8.1 mph - N/A   Overcast
9:53 AM 57.9 °F 55.9 °F 93% 30.24 in 10.0 mi South 8.1 mph 16.1 mph N/A   Overcast
10:53 AM 59.0 °F 57.0 °F 93% 30.22 in 10.0 mi South 11.5 mph 19.6 mph 0.00 in Rain Light Rain
11:08 AM 59.0 °F 57.2 °F 94% 30.21 in 10.0 mi South 16.1 mph 21.9 mph 0.00 in Rain Light Rain
11:23 AM 59.0 °F 57.2 °F 94% 30.21 in 10.0 mi South 12.7 mph - 0.00 in Rain Light Rain
11:39 AM 59.0 °F 57.2 °F 94% 30.22 in 10.0 mi SSW 10.4 mph - 0.00 in   Overcast
11:53 AM 60.1 °F 57.0 °F 90% 30.23 in 10.0 mi South 5.8 mph - 0.00 in Rain Light Rain
1:18 PM 60.8 °F 57.2 °F 88% 30.22 in 10.0 mi SSW 6.9 mph - N/A   Overcast
1:53 PM 62.1 °F 57.0 °F 84% 30.22 in 10.0 mi SW 9.2 mph - N/A   Overcast
2:10 PM 62.6 °F 57.2 °F 82% 30.21 in 10.0 mi SSW 6.9 mph - N/A   Overcast
2:53 PM 63.0 °F 57.0 °F 81% 30.22 in 10.0 mi SSW 9.2 mph 17.3 mph N/A   Overcast
3:53 PM 63.0 °F 55.9 °F 78% 30.22 in 10.0 mi SSW 12.7 mph - N/A   Mostly Cloudy
5:53 PM 63.0 °F 57.9 °F 84% 30.22 in 10.0 mi SW 5.8 mph - N/A   Overcast
6:29 PM 62.6 °F 57.2 °F 82% 30.21 in 10.0 mi South 4.6 mph - N/A   Overcast
7:53 PM 61.0 °F 57.0 °F 87% 30.22 in 10.0 mi South 4.6 mph - N/A   Mostly Cloudy
10:53 PM 59.0 °F 57.0 °F 93% 30.17 in 10.0 mi SSW 6.9 mph - N/A   Clear
11:53 PM 57.9 °F 55.9 °F 93% 30.17 in 10.0 mi Calm Calm - N/A   Clear